Year,Month,Day,Hour,Minute,Value (Times are PST for temperature in C)
2011,08,16,00,00,11.70
2011,08,16,00,01,11.70
2011,08,16,00,02,11.60
2011,08,16,00,03,11.60
2011,08,16,00,04,11.60
2011,08,16,00,05,11.50
2011,08,16,00,06,11.50
2011,08,16,00,07,11.40
2011,08,16,00,08,11.40
2011,08,16,00,09,11.40
2011,08,16,00,10,11.40
2011,08,16,00,11,11.40
2011,08,16,00,12,11.40
2011,08,16,00,13,11.40
2011,08,16,00,14,11.40
2011,08,16,00,15,11.40
2011,08,16,00,16,11.30
2011,08,16,00,17,11.30
2011,08,16,00,18,11.30
2011,08,16,00,19,11.30
2011,08,16,00,20,11.30
2011,08,16,00,21,11.30
2011,08,16,00,22,11.30
2011,08,16,00,23,11.30
2011,08,16,00,24,11.30
2011,08,16,00,25,11.30
2011,08,16,00,26,11.30
2011,08,16,00,27,11.30
2011,08,16,00,28,11.20
2011,08,16,00,29,11.20
2011,08,16,00,30,11.20
2011,08,16,00,31,11.20
2011,08,16,00,32,11.20
2011,08,16,00,33,11.20
2011,08,16,00,34,11.20
2011,08,16,00,35,11.10
2011,08,16,00,36,11.10
2011,08,16,00,37,11.10
2011,08,16,00,38,11.10
2011,08,16,00,39,11.10
2011,08,16,00,40,11.10
2011,08,16,00,41,11.00
2011,08,16,00,42,11.00
2011,08,16,00,43,11.00
2011,08,16,00,44,10.90
2011,08,16,00,45,10.90
2011,08,16,00,46,10.90
2011,08,16,00,47,10.90
2011,08,16,00,48,10.90
2011,08,16,00,49,10.90
2011,08,16,00,50,10.90
2011,08,16,00,51,10.90
2011,08,16,00,52,10.90
2011,08,16,00,53,10.90
2011,08,16,00,54,10.90
2011,08,16,00,55,10.90
2011,08,16,00,56,10.90
2011,08,16,00,57,10.90
2011,08,16,00,58,10.90
2011,08,16,00,59,10.90
2011,08,16,01,00,10.90
2011,08,16,01,01,10.90
2011,08,16,01,02,10.90
2011,08,16,01,03,10.90
2011,08,16,01,04,10.90
2011,08,16,01,05,10.90
2011,08,16,01,06,10.90
2011,08,16,01,07,11.00
2011,08,16,01,08,11.00
2011,08,16,01,09,11.00
2011,08,16,01,10,11.00
2011,08,16,01,11,11.00
2011,08,16,01,12,11.00
2011,08,16,01,13,11.00
2011,08,16,01,14,11.00
2011,08,16,01,15,11.10
2011,08,16,01,16,11.10
2011,08,16,01,17,11.10
2011,08,16,01,18,11.10
2011,08,16,01,19,11.10
2011,08,16,01,20,11.10
2011,08,16,01,21,11.10
2011,08,16,01,22,11.10
2011,08,16,01,23,11.00
2011,08,16,01,24,11.00
2011,08,16,01,25,11.00
2011,08,16,01,26,11.00
2011,08,16,01,27,11.00
2011,08,16,01,28,11.00
2011,08,16,01,29,11.00
2011,08,16,01,30,11.00
2011,08,16,01,31,11.00
2011,08,16,01,32,11.00
2011,08,16,01,33,11.00
2011,08,16,01,34,11.00
2011,08,16,01,35,11.10
2011,08,16,01,36,11.10
2011,08,16,01,37,11.10
2011,08,16,01,38,11.10
2011,08,16,01,39,11.20
2011,08,16,01,40,11.20
2011,08,16,01,41,11.20
2011,08,16,01,42,11.20
2011,08,16,01,43,11.30
2011,08,16,01,44,11.30
2011,08,16,01,45,11.40
2011,08,16,01,46,11.40
2011,08,16,01,47,11.40
2011,08,16,01,48,11.50
2011,08,16,01,49,11.50
2011,08,16,01,50,11.50
2011,08,16,01,51,11.50
2011,08,16,01,52,11.50
2011,08,16,01,53,11.50
2011,08,16,01,54,11.60
2011,08,16,01,55,11.60
2011,08,16,01,56,11.60
2011,08,16,01,57,11.70
2011,08,16,01,58,11.70
2011,08,16,01,59,11.80
2011,08,16,02,00,11.80
2011,08,16,02,01,11.90
2011,08,16,02,02,11.90
2011,08,16,02,03,11.90
2011,08,16,02,04,11.90
2011,08,16,02,05,11.90
2011,08,16,02,06,11.80
2011,08,16,02,07,11.80
2011,08,16,02,08,11.70
2011,08,16,02,09,11.70
2011,08,16,02,10,11.60
2011,08,16,02,11,11.60
2011,08,16,02,12,11.50
2011,08,16,02,13,11.50
2011,08,16,02,14,11.40
2011,08,16,02,15,11.40
2011,08,16,02,16,11.40
2011,08,16,02,17,11.40
2011,08,16,02,18,11.40
2011,08,16,02,19,11.40
2011,08,16,02,20,11.40
2011,08,16,02,21,11.40
2011,08,16,02,22,11.40
2011,08,16,02,23,11.30
2011,08,16,02,24,11.30
2011,08,16,02,25,11.30
2011,08,16,02,26,11.30
2011,08,16,02,27,11.30
2011,08,16,02,28,11.30
2011,08,16,02,29,11.20
2011,08,16,02,30,11.20
2011,08,16,02,31,11.20
2011,08,16,02,32,11.20
2011,08,16,02,33,11.10
2011,08,16,02,34,11.10
2011,08,16,02,35,11.10
2011,08,16,02,36,11.10
2011,08,16,02,37,11.10
2011,08,16,02,38,11.00
2011,08,16,02,39,11.00
2011,08,16,02,40,11.00
2011,08,16,02,41,11.00
2011,08,16,02,42,11.00
2011,08,16,02,43,11.00
2011,08,16,02,44,11.00
2011,08,16,02,45,11.10
2011,08,16,02,46,11.10
2011,08,16,02,47,11.10
2011,08,16,02,48,11.10
2011,08,16,02,49,11.00
2011,08,16,02,50,11.00
2011,08,16,02,51,11.00
2011,08,16,02,52,11.00
2011,08,16,02,53,10.90
2011,08,16,02,54,10.90
2011,08,16,02,55,10.90
2011,08,16,02,56,11.00
2011,08,16,02,57,11.00
2011,08,16,02,58,11.10
2011,08,16,02,59,11.10
2011,08,16,03,00,11.20
2011,08,16,03,01,11.20
2011,08,16,03,02,11.20
2011,08,16,03,03,11.20
2011,08,16,03,04,11.20
2011,08,16,03,05,11.20
2011,08,16,03,06,11.30
2011,08,16,03,07,11.30
2011,08,16,03,08,11.30
2011,08,16,03,09,11.40
2011,08,16,03,10,11.40
2011,08,16,03,11,11.40
2011,08,16,03,12,11.40
2011,08,16,03,13,11.40
2011,08,16,03,14,11.40
2011,08,16,03,15,11.40
2011,08,16,03,16,11.30
2011,08,16,03,17,11.30
2011,08,16,03,18,11.30
2011,08,16,03,19,11.30
2011,08,16,03,20,11.30
2011,08,16,03,21,11.30
2011,08,16,03,22,11.30
2011,08,16,03,23,11.40
2011,08,16,03,24,11.50
2011,08,16,03,25,11.50
2011,08,16,03,26,11.50
2011,08,16,03,27,11.60
2011,08,16,03,28,11.60
2011,08,16,03,29,11.60
2011,08,16,03,30,11.60
2011,08,16,03,31,11.60
2011,08,16,03,32,11.60
2011,08,16,03,33,11.60
2011,08,16,03,34,11.60
2011,08,16,03,35,11.60
2011,08,16,03,36,11.50
2011,08,16,03,37,11.50
2011,08,16,03,38,11.40
2011,08,16,03,39,11.40
2011,08,16,03,40,11.40
2011,08,16,03,41,11.40
2011,08,16,03,42,11.30
2011,08,16,03,43,11.40
2011,08,16,03,44,11.40
2011,08,16,03,45,11.40
2011,08,16,03,46,11.40
2011,08,16,03,47,11.50
2011,08,16,03,48,11.40
2011,08,16,03,49,11.40
2011,08,16,03,50,11.40
2011,08,16,03,51,11.40
2011,08,16,03,52,11.40
2011,08,16,03,53,11.30
2011,08,16,03,54,11.30
2011,08,16,03,55,11.30
2011,08,16,03,56,11.30
2011,08,16,03,57,11.30
2011,08,16,03,58,11.20
2011,08,16,03,59,11.20
2011,08,16,04,00,11.20
2011,08,16,04,01,11.20
2011,08,16,04,02,11.20
2011,08,16,04,03,11.20
2011,08,16,04,04,11.20
2011,08,16,04,05,11.20
2011,08,16,04,06,11.20
2011,08,16,04,07,11.20
2011,08,16,04,08,11.20
2011,08,16,04,09,11.20
2011,08,16,04,10,11.20
2011,08,16,04,11,11.10
2011,08,16,04,12,11.10
2011,08,16,04,13,11.10
2011,08,16,04,14,11.10
2011,08,16,04,15,11.10
2011,08,16,04,16,11.10
2011,08,16,04,17,11.10
2011,08,16,04,18,11.00
2011,08,16,04,19,11.00
2011,08,16,04,20,11.00
2011,08,16,04,21,11.00
2011,08,16,04,22,11.00
2011,08,16,04,23,11.00
2011,08,16,04,24,11.10
2011,08,16,04,25,11.10
2011,08,16,04,26,11.00
2011,08,16,04,27,11.00
2011,08,16,04,28,10.90
2011,08,16,04,29,10.90
2011,08,16,04,30,10.90
2011,08,16,04,31,10.90
2011,08,16,04,32,10.90
2011,08,16,04,33,10.90
2011,08,16,04,34,10.90
2011,08,16,04,35,10.80
2011,08,16,04,36,10.90
2011,08,16,04,37,10.90
2011,08,16,04,38,10.90
2011,08,16,04,39,10.90
2011,08,16,04,40,10.90
2011,08,16,04,41,10.90
2011,08,16,04,42,10.90
2011,08,16,04,43,10.90
2011,08,16,04,44,10.90
2011,08,16,04,45,11.00
2011,08,16,04,46,11.00
2011,08,16,04,47,11.10
2011,08,16,04,48,11.10
2011,08,16,04,49,11.10
2011,08,16,04,50,11.20
2011,08,16,04,51,11.20
2011,08,16,04,52,11.20
2011,08,16,04,53,11.20
2011,08,16,04,54,11.10
2011,08,16,04,55,11.10
2011,08,16,04,56,11.10
2011,08,16,04,57,11.00
2011,08,16,04,58,11.00
2011,08,16,04,59,11.00
2011,08,16,05,00,11.10
2011,08,16,05,01,11.10
2011,08,16,05,02,11.10
2011,08,16,05,03,11.10
2011,08,16,05,04,11.20
2011,08,16,05,05,11.20
2011,08,16,05,06,11.20
2011,08,16,05,07,11.20
2011,08,16,05,08,11.20
2011,08,16,05,09,11.20
2011,08,16,05,10,11.30
2011,08,16,05,11,11.30
2011,08,16,05,12,11.30
2011,08,16,05,13,11.30
2011,08,16,05,14,11.20
2011,08,16,05,15,11.20
2011,08,16,05,16,11.20
2011,08,16,05,17,11.20
2011,08,16,05,18,11.20
2011,08,16,05,19,11.30
2011,08,16,05,20,11.30
2011,08,16,05,21,11.40
2011,08,16,05,22,11.40
2011,08,16,05,23,11.50
2011,08,16,05,24,11.50
2011,08,16,05,25,11.60
2011,08,16,05,26,11.50
2011,08,16,05,27,11.50
2011,08,16,05,28,11.40
2011,08,16,05,29,11.40
2011,08,16,05,30,11.40
2011,08,16,05,31,11.30
2011,08,16,05,32,11.30
2011,08,16,05,33,11.30
2011,08,16,05,34,11.30
2011,08,16,05,35,11.30
2011,08,16,05,36,11.20
2011,08,16,05,37,11.20
2011,08,16,05,38,11.10
2011,08,16,05,39,11.10
2011,08,16,05,40,11.10
2011,08,16,05,41,11.10
2011,08,16,05,42,11.10
2011,08,16,05,43,11.20
2011,08,16,05,44,11.20
2011,08,16,05,45,11.20
2011,08,16,05,46,11.20
2011,08,16,05,47,11.10
2011,08,16,05,48,11.10
2011,08,16,05,49,11.10
2011,08,16,05,50,11.10
2011,08,16,05,51,11.00
2011,08,16,05,52,11.00
2011,08,16,05,53,10.90
2011,08,16,05,54,10.90
2011,08,16,05,55,10.90
2011,08,16,05,56,10.90
2011,08,16,05,57,11.00
2011,08,16,05,58,11.10
2011,08,16,05,59,11.10
2011,08,16,06,00,11.10
2011,08,16,06,01,11.10
2011,08,16,06,02,11.10
2011,08,16,06,03,11.00
2011,08,16,06,04,11.00
2011,08,16,06,05,11.00
2011,08,16,06,06,11.00
2011,08,16,06,07,11.00
2011,08,16,06,08,11.00
2011,08,16,06,09,11.00
2011,08,16,06,10,11.00
2011,08,16,06,11,11.00
2011,08,16,06,12,11.00
2011,08,16,06,13,11.00
2011,08,16,06,14,11.00
2011,08,16,06,15,11.10
2011,08,16,06,16,11.10
2011,08,16,06,17,11.10
2011,08,16,06,18,11.10
2011,08,16,06,19,11.10
2011,08,16,06,20,11.10
2011,08,16,06,21,11.10
2011,08,16,06,22,11.10
2011,08,16,06,23,11.10
2011,08,16,06,24,11.10
2011,08,16,06,25,11.00
2011,08,16,06,26,11.00
2011,08,16,06,27,11.00
2011,08,16,06,28,11.00
2011,08,16,06,29,11.10
2011,08,16,06,30,11.10
2011,08,16,06,31,11.10
2011,08,16,06,32,11.10
2011,08,16,06,33,11.00
2011,08,16,06,34,11.00
2011,08,16,06,35,11.00
2011,08,16,06,36,11.00
2011,08,16,06,37,11.10
2011,08,16,06,38,11.10
2011,08,16,06,39,11.10
2011,08,16,06,40,11.10
2011,08,16,06,41,11.10
2011,08,16,06,42,11.20
2011,08,16,06,43,11.20
2011,08,16,06,44,11.20
2011,08,16,06,45,11.20
2011,08,16,06,46,11.20
2011,08,16,06,47,11.20
2011,08,16,06,48,11.20
2011,08,16,06,49,11.20
2011,08,16,06,50,11.20
2011,08,16,06,51,11.30
2011,08,16,06,52,11.30
2011,08,16,06,53,11.30
2011,08,16,06,54,11.30
2011,08,16,06,55,11.30
2011,08,16,06,56,11.30
2011,08,16,06,57,11.30
2011,08,16,06,58,11.30
2011,08,16,06,59,11.30
2011,08,16,07,00,11.30
2011,08,16,07,01,11.40
2011,08,16,07,02,11.40
2011,08,16,07,03,11.40
2011,08,16,07,04,11.40
2011,08,16,07,05,11.50
2011,08,16,07,06,11.50
2011,08,16,07,07,11.60
2011,08,16,07,08,11.60
2011,08,16,07,09,11.60
2011,08,16,07,10,11.70
2011,08,16,07,11,11.70
2011,08,16,07,12,11.70
2011,08,16,07,13,11.70
2011,08,16,07,14,11.70
2011,08,16,07,15,11.70
2011,08,16,07,16,11.80
2011,08,16,07,17,11.80
2011,08,16,07,18,11.80
2011,08,16,07,19,11.90
2011,08,16,07,20,11.90
2011,08,16,07,21,12.00
2011,08,16,07,22,12.10
2011,08,16,07,23,12.10
2011,08,16,07,24,12.20
2011,08,16,07,25,12.30
2011,08,16,07,26,12.30
2011,08,16,07,27,12.40
2011,08,16,07,28,12.50
2011,08,16,07,29,12.50
2011,08,16,07,30,12.60
2011,08,16,07,31,12.70
2011,08,16,07,32,12.70
2011,08,16,07,33,12.80
2011,08,16,07,34,12.80
2011,08,16,07,35,12.90
2011,08,16,07,36,13.00
2011,08,16,07,37,13.10
2011,08,16,07,38,13.20
2011,08,16,07,39,13.30
2011,08,16,07,40,13.40
2011,08,16,07,41,13.50
2011,08,16,07,42,13.60
2011,08,16,07,43,13.70
2011,08,16,07,44,13.70
2011,08,16,07,45,13.80
2011,08,16,07,46,13.80
2011,08,16,07,47,13.90
2011,08,16,07,48,13.90
2011,08,16,07,49,14.00
2011,08,16,07,50,14.00
2011,08,16,07,51,14.10
2011,08,16,07,52,14.10
2011,08,16,07,53,14.20
2011,08,16,07,54,14.20
2011,08,16,07,55,14.30
2011,08,16,07,56,14.30
2011,08,16,07,57,14.30
2011,08,16,07,58,14.40
2011,08,16,07,59,14.40
2011,08,16,08,00,14.40
2011,08,16,08,01,14.50
2011,08,16,08,02,14.50
2011,08,16,08,03,14.50
2011,08,16,08,04,14.60
2011,08,16,08,05,14.60
2011,08,16,08,06,14.60
2011,08,16,08,07,14.70
2011,08,16,08,08,14.70
2011,08,16,08,09,14.70
2011,08,16,08,10,14.70
2011,08,16,08,11,14.70
2011,08,16,08,12,14.70
2011,08,16,08,13,14.70
2011,08,16,08,14,14.80
2011,08,16,08,15,14.80
2011,08,16,08,16,14.80
2011,08,16,08,17,14.80
2011,08,16,08,18,14.90
2011,08,16,08,19,14.90
2011,08,16,08,20,15.00
2011,08,16,08,21,15.00
2011,08,16,08,22,15.00
2011,08,16,08,23,15.00
2011,08,16,08,24,15.00
2011,08,16,08,25,15.00
2011,08,16,08,26,15.00
2011,08,16,08,27,15.00
2011,08,16,08,28,15.00
2011,08,16,08,29,15.10
2011,08,16,08,30,15.20
2011,08,16,08,31,15.20
2011,08,16,08,32,15.20
2011,08,16,08,33,15.20
2011,08,16,08,34,15.20
2011,08,16,08,35,15.20
2011,08,16,08,36,15.20
2011,08,16,08,37,15.20
2011,08,16,08,38,15.20
2011,08,16,08,39,15.20
2011,08,16,08,40,15.10
2011,08,16,08,41,15.10
2011,08,16,08,42,15.00
2011,08,16,08,43,15.00
2011,08,16,08,44,15.00
2011,08,16,08,45,15.00
2011,08,16,08,46,15.00
2011,08,16,08,47,15.00
2011,08,16,08,48,15.00
2011,08,16,08,49,15.10
2011,08,16,08,50,15.20
2011,08,16,08,51,15.20
2011,08,16,08,52,15.30
2011,08,16,08,53,15.30
2011,08,16,08,54,15.40
2011,08,16,08,55,15.40
2011,08,16,08,56,15.50
2011,08,16,08,57,15.50
2011,08,16,08,58,15.60
2011,08,16,08,59,15.60
2011,08,16,09,00,15.70
2011,08,16,09,01,15.80
2011,08,16,09,02,15.80
2011,08,16,09,03,15.90
2011,08,16,09,04,16.00
2011,08,16,09,05,16.10
2011,08,16,09,06,16.20
2011,08,16,09,07,16.30
2011,08,16,09,08,16.30
2011,08,16,09,09,16.20
2011,08,16,09,10,16.20
2011,08,16,09,11,16.20
2011,08,16,09,12,16.20
2011,08,16,09,13,16.20
2011,08,16,09,14,16.20
2011,08,16,09,15,16.20
2011,08,16,09,16,16.30
2011,08,16,09,17,16.40
2011,08,16,09,18,16.50
2011,08,16,09,19,16.60
2011,08,16,09,20,16.70
2011,08,16,09,21,16.70
2011,08,16,09,22,16.60
2011,08,16,09,23,16.60
2011,08,16,09,24,16.60
2011,08,16,09,25,16.60
2011,08,16,09,26,16.50
2011,08,16,09,27,16.50
2011,08,16,09,28,16.50
2011,08,16,09,29,16.50
2011,08,16,09,30,16.50
2011,08,16,09,31,16.50
2011,08,16,09,32,16.50
2011,08,16,09,33,16.60
2011,08,16,09,34,16.50
2011,08,16,09,35,16.50
2011,08,16,09,36,16.50
2011,08,16,09,37,16.50
2011,08,16,09,38,16.40
2011,08,16,09,39,16.50
2011,08,16,09,40,16.50
2011,08,16,09,41,16.50
2011,08,16,09,42,16.60
2011,08,16,09,43,16.70
2011,08,16,09,44,16.80
2011,08,16,09,45,16.80
2011,08,16,09,46,16.90
2011,08,16,09,47,16.90
2011,08,16,09,48,16.90
2011,08,16,09,49,16.90
2011,08,16,09,50,16.90
2011,08,16,09,51,17.00
2011,08,16,09,52,16.90
2011,08,16,09,53,16.90
2011,08,16,09,54,16.80
2011,08,16,09,55,16.80
2011,08,16,09,56,16.80
2011,08,16,09,57,16.70
2011,08,16,09,58,16.70
2011,08,16,09,59,16.80
2011,08,16,10,00,16.80
2011,08,16,10,01,16.80
2011,08,16,10,02,16.90
2011,08,16,10,03,16.90
2011,08,16,10,04,17.00
2011,08,16,10,05,17.00
2011,08,16,10,06,17.10
2011,08,16,10,07,17.10
2011,08,16,10,08,17.10
2011,08,16,10,09,17.20
2011,08,16,10,10,17.20
2011,08,16,10,11,17.20
2011,08,16,10,12,17.20
2011,08,16,10,13,17.20
2011,08,16,10,14,17.20
2011,08,16,10,15,17.20
2011,08,16,10,16,17.20
2011,08,16,10,17,17.20
2011,08,16,10,18,17.30
2011,08,16,10,19,17.20
2011,08,16,10,20,17.30
2011,08,16,10,21,17.30
2011,08,16,10,22,17.30
2011,08,16,10,23,17.30
2011,08,16,10,24,17.40
2011,08,16,10,25,17.40
2011,08,16,10,26,17.50
2011,08,16,10,27,17.60
2011,08,16,10,28,17.70
2011,08,16,10,29,17.80
2011,08,16,10,30,17.80
2011,08,16,10,31,17.90
2011,08,16,10,32,17.90
2011,08,16,10,33,17.90
2011,08,16,10,34,17.90
2011,08,16,10,35,17.80
2011,08,16,10,36,17.80
2011,08,16,10,37,17.80
2011,08,16,10,38,17.70
2011,08,16,10,39,17.80
2011,08,16,10,40,17.90
2011,08,16,10,41,17.90
2011,08,16,10,42,17.90
2011,08,16,10,43,17.90
2011,08,16,10,44,17.80
2011,08,16,10,45,17.80
2011,08,16,10,46,17.80
2011,08,16,10,47,17.80
2011,08,16,10,48,17.80
2011,08,16,10,49,17.80
2011,08,16,10,50,17.80
2011,08,16,10,51,17.80
2011,08,16,10,52,17.80
2011,08,16,10,53,17.80
2011,08,16,10,54,17.80
2011,08,16,10,55,17.80
2011,08,16,10,56,17.80
2011,08,16,10,57,17.80
2011,08,16,10,58,17.80
2011,08,16,10,59,17.90
2011,08,16,11,00,18.00
2011,08,16,11,01,17.90
2011,08,16,11,02,17.80
2011,08,16,11,03,17.80
2011,08,16,11,04,17.70
2011,08,16,11,05,17.70
2011,08,16,11,06,17.70
2011,08,16,11,07,17.70
2011,08,16,11,08,17.80
2011,08,16,11,09,17.90
2011,08,16,11,10,18.00
2011,08,16,11,11,18.10
2011,08,16,11,12,18.20
2011,08,16,11,13,18.20
2011,08,16,11,14,18.20
2011,08,16,11,15,18.30
2011,08,16,11,16,18.30
2011,08,16,11,17,18.40
2011,08,16,11,18,18.50
2011,08,16,11,19,18.50
2011,08,16,11,20,18.50
2011,08,16,11,21,18.60
2011,08,16,11,22,18.70
2011,08,16,11,23,18.70
2011,08,16,11,24,18.80
2011,08,16,11,25,18.70
2011,08,16,11,26,18.70
2011,08,16,11,27,18.60
2011,08,16,11,28,18.60
2011,08,16,11,29,18.50
2011,08,16,11,30,18.50
2011,08,16,11,31,18.50
2011,08,16,11,32,18.50
2011,08,16,11,33,18.50
2011,08,16,11,34,18.40
2011,08,16,11,35,18.30
2011,08,16,11,36,18.30
2011,08,16,11,37,18.20
2011,08,16,11,38,18.20
2011,08,16,11,39,18.20
2011,08,16,11,40,18.20
2011,08,16,11,41,18.30
2011,08,16,11,42,18.50
2011,08,16,11,43,18.70
2011,08,16,11,44,18.70
2011,08,16,11,45,18.80
2011,08,16,11,46,18.90
2011,08,16,11,47,18.90
2011,08,16,11,48,18.80
2011,08,16,11,49,18.80
2011,08,16,11,50,18.70
2011,08,16,11,51,18.70
2011,08,16,11,52,18.70
2011,08,16,11,53,18.70
2011,08,16,11,54,18.70
2011,08,16,11,55,18.70
2011,08,16,11,56,18.70
2011,08,16,11,57,18.70
2011,08,16,11,58,18.70
2011,08,16,11,59,18.60
2011,08,16,12,00,18.60
2011,08,16,12,01,18.50
2011,08,16,12,02,18.60
2011,08,16,12,03,18.60
2011,08,16,12,04,18.70
2011,08,16,12,05,18.80
2011,08,16,12,06,18.80
2011,08,16,12,07,18.90
2011,08,16,12,08,18.90
2011,08,16,12,09,19.00
2011,08,16,12,10,19.10
2011,08,16,12,11,19.20
2011,08,16,12,12,19.20
2011,08,16,12,13,19.20
2011,08,16,12,14,19.20
2011,08,16,12,15,19.20
2011,08,16,12,16,19.20
2011,08,16,12,17,19.20
2011,08,16,12,18,19.20
2011,08,16,12,19,19.30
2011,08,16,12,20,19.40
2011,08,16,12,21,19.50
2011,08,16,12,22,19.50
2011,08,16,12,23,19.50
2011,08,16,12,24,19.60
2011,08,16,12,25,19.60
2011,08,16,12,26,19.70
2011,08,16,12,27,19.70
2011,08,16,12,28,19.50
2011,08,16,12,29,19.50
2011,08,16,12,30,19.40
2011,08,16,12,31,19.40
2011,08,16,12,32,19.60
2011,08,16,12,33,19.70
2011,08,16,12,34,19.70
2011,08,16,12,35,19.60
2011,08,16,12,36,19.50
2011,08,16,12,37,19.50
2011,08,16,12,38,19.60
2011,08,16,12,39,19.70
2011,08,16,12,40,19.60
2011,08,16,12,41,19.70
2011,08,16,12,42,19.60
2011,08,16,12,43,19.60
2011,08,16,12,44,19.60
2011,08,16,12,45,19.60
2011,08,16,12,46,19.60
2011,08,16,12,47,19.70
2011,08,16,12,48,19.80
2011,08,16,12,49,19.80
2011,08,16,12,50,19.90
2011,08,16,12,51,20.00
2011,08,16,12,52,20.10
2011,08,16,12,53,20.10
2011,08,16,12,54,20.10
2011,08,16,12,55,20.10
2011,08,16,12,56,20.20
2011,08,16,12,57,20.10
2011,08,16,12,58,20.00
2011,08,16,12,59,19.90
2011,08,16,13,00,19.80
2011,08,16,13,01,19.80
2011,08,16,13,02,19.70
2011,08,16,13,03,19.70
2011,08,16,13,04,19.70
2011,08,16,13,05,19.70
2011,08,16,13,06,19.80
2011,08,16,13,07,19.80
2011,08,16,13,08,19.70
2011,08,16,13,09,19.70
2011,08,16,13,10,19.70
2011,08,16,13,11,19.70
2011,08,16,13,12,19.80
2011,08,16,13,13,19.90
2011,08,16,13,14,19.90
2011,08,16,13,15,19.80
2011,08,16,13,16,19.70
2011,08,16,13,17,19.80
2011,08,16,13,18,19.80
2011,08,16,13,19,19.80
2011,08,16,13,20,19.80
2011,08,16,13,21,19.80
2011,08,16,13,22,19.90
2011,08,16,13,23,19.90
2011,08,16,13,24,19.90
2011,08,16,13,25,19.90
2011,08,16,13,26,19.90
2011,08,16,13,27,19.80
2011,08,16,13,28,19.90
2011,08,16,13,29,20.00
2011,08,16,13,30,20.00
2011,08,16,13,31,19.90
2011,08,16,13,32,19.80
2011,08,16,13,33,19.80
2011,08,16,13,34,19.80
2011,08,16,13,35,19.90
2011,08,16,13,36,19.80
2011,08,16,13,37,19.80
2011,08,16,13,38,19.70
2011,08,16,13,39,19.70
2011,08,16,13,40,19.70
2011,08,16,13,41,19.70
2011,08,16,13,42,19.70
2011,08,16,13,43,19.60
2011,08,16,13,44,19.60
2011,08,16,13,45,19.50
2011,08,16,13,46,19.50
2011,08,16,13,47,19.50
2011,08,16,13,48,19.60
2011,08,16,13,49,19.70
2011,08,16,13,50,19.90
2011,08,16,13,51,20.00
2011,08,16,13,52,20.10
2011,08,16,13,53,20.20
2011,08,16,13,54,20.30
2011,08,16,13,55,20.30
2011,08,16,13,56,20.20
2011,08,16,13,57,20.20
2011,08,16,13,58,20.10
2011,08,16,13,59,20.00
2011,08,16,14,00,19.80
2011,08,16,14,01,19.80
2011,08,16,14,02,19.90
2011,08,16,14,03,20.00
2011,08,16,14,04,20.10
2011,08,16,14,05,20.30
2011,08,16,14,06,20.30
2011,08,16,14,07,20.30
2011,08,16,14,08,20.20
2011,08,16,14,09,20.10
2011,08,16,14,10,20.10
2011,08,16,14,11,20.10
2011,08,16,14,12,20.20
2011,08,16,14,13,20.20
2011,08,16,14,14,20.20
2011,08,16,14,15,20.30
2011,08,16,14,16,20.40
2011,08,16,14,17,20.50
2011,08,16,14,18,20.40
2011,08,16,14,19,20.40
2011,08,16,14,20,20.50
2011,08,16,14,21,20.50
2011,08,16,14,22,20.50
2011,08,16,14,23,20.50
2011,08,16,14,24,20.60
2011,08,16,14,25,20.60
2011,08,16,14,26,20.70
2011,08,16,14,27,20.70
2011,08,16,14,28,20.70
2011,08,16,14,29,20.70
2011,08,16,14,30,20.70
2011,08,16,14,31,20.70
2011,08,16,14,32,20.70
2011,08,16,14,33,20.80
2011,08,16,14,34,20.90
2011,08,16,14,35,21.00
2011,08,16,14,36,21.10
2011,08,16,14,37,21.10
2011,08,16,14,38,21.10
2011,08,16,14,39,21.10
2011,08,16,14,40,21.10
2011,08,16,14,41,21.20
2011,08,16,14,42,21.10
2011,08,16,14,43,21.10
2011,08,16,14,44,21.20
2011,08,16,14,45,21.30
2011,08,16,14,46,21.30
2011,08,16,14,47,21.30
2011,08,16,14,48,21.30
2011,08,16,14,49,21.30
2011,08,16,14,50,21.40
2011,08,16,14,51,21.40
2011,08,16,14,52,21.30
2011,08,16,14,53,21.30
2011,08,16,14,54,21.30
2011,08,16,14,55,21.30
2011,08,16,14,56,21.30
2011,08,16,14,57,21.40
2011,08,16,14,58,21.50
2011,08,16,14,59,21.50
2011,08,16,15,00,21.40
2011,08,16,15,01,21.30
2011,08,16,15,02,21.20
2011,08,16,15,03,21.10
2011,08,16,15,04,21.10
2011,08,16,15,05,21.10
2011,08,16,15,06,21.20
2011,08,16,15,07,21.30
2011,08,16,15,08,21.30
2011,08,16,15,09,21.30
2011,08,16,15,10,21.20
2011,08,16,15,11,21.20
2011,08,16,15,12,21.20
2011,08,16,15,13,21.30
2011,08,16,15,14,21.30
2011,08,16,15,15,21.30
2011,08,16,15,16,21.30
2011,08,16,15,17,21.30
2011,08,16,15,18,21.30
2011,08,16,15,19,21.30
2011,08,16,15,20,21.40
2011,08,16,15,21,21.50
2011,08,16,15,22,21.40
2011,08,16,15,23,21.40
2011,08,16,15,24,21.30
2011,08,16,15,25,21.20
2011,08,16,15,26,21.30
2011,08,16,15,27,21.40
2011,08,16,15,28,21.50
2011,08,16,15,29,21.50
2011,08,16,15,30,21.50
2011,08,16,15,31,21.40
2011,08,16,15,32,21.30
2011,08,16,15,33,21.30
2011,08,16,15,34,21.20
2011,08,16,15,35,21.20
2011,08,16,15,36,21.20
2011,08,16,15,37,21.20
2011,08,16,15,38,21.20
2011,08,16,15,39,21.20
2011,08,16,15,40,21.20
2011,08,16,15,41,21.20
2011,08,16,15,42,21.20
2011,08,16,15,43,21.20
2011,08,16,15,44,21.20
2011,08,16,15,45,21.20
2011,08,16,15,46,21.10
2011,08,16,15,47,21.10
2011,08,16,15,48,21.10
2011,08,16,15,49,21.20
2011,08,16,15,50,21.20
2011,08,16,15,51,21.30
2011,08,16,15,52,21.30
2011,08,16,15,53,21.40
2011,08,16,15,54,21.40
2011,08,16,15,55,21.30
2011,08,16,15,56,21.20
2011,08,16,15,57,21.20
2011,08,16,15,58,21.20
2011,08,16,15,59,21.20
2011,08,16,16,00,21.20
2011,08,16,16,01,21.20
2011,08,16,16,02,21.30
2011,08,16,16,03,21.40
2011,08,16,16,04,21.50
2011,08,16,16,05,21.40
2011,08,16,16,06,21.40
2011,08,16,16,07,21.30
2011,08,16,16,08,21.30
2011,08,16,16,09,21.30
2011,08,16,16,10,21.30
2011,08,16,16,11,21.30
2011,08,16,16,12,21.20
2011,08,16,16,13,21.20
2011,08,16,16,14,21.10
2011,08,16,16,15,21.10
2011,08,16,16,16,21.10
2011,08,16,16,17,21.20
2011,08,16,16,18,21.30
2011,08,16,16,19,21.30
2011,08,16,16,20,21.40
2011,08,16,16,21,21.40
2011,08,16,16,22,21.30
2011,08,16,16,23,21.30
2011,08,16,16,24,21.30
2011,08,16,16,25,21.30
2011,08,16,16,26,21.30
2011,08,16,16,27,21.30
2011,08,16,16,28,21.30
2011,08,16,16,29,21.30
2011,08,16,16,30,21.20
2011,08,16,16,31,21.20
2011,08,16,16,32,21.20
2011,08,16,16,33,21.20
2011,08,16,16,34,21.20
2011,08,16,16,35,21.20
2011,08,16,16,36,21.20
2011,08,16,16,37,21.20
2011,08,16,16,38,21.30
2011,08,16,16,39,21.30
2011,08,16,16,40,21.40
2011,08,16,16,41,21.40
2011,08,16,16,42,21.40
2011,08,16,16,43,21.40
2011,08,16,16,44,21.40
2011,08,16,16,45,21.40
2011,08,16,16,46,21.40
2011,08,16,16,47,21.40
2011,08,16,16,48,21.50
2011,08,16,16,49,21.50
2011,08,16,16,50,21.60
2011,08,16,16,51,21.60
2011,08,16,16,52,21.70
2011,08,16,16,53,21.80
2011,08,16,16,54,21.80
2011,08,16,16,55,21.90
2011,08,16,16,56,21.90
2011,08,16,16,57,21.90
2011,08,16,16,58,21.90
2011,08,16,16,59,21.80
2011,08,16,17,00,21.80
2011,08,16,17,01,21.80
2011,08,16,17,02,21.70
2011,08,16,17,03,21.70
2011,08,16,17,04,21.70
2011,08,16,17,05,21.60
2011,08,16,17,06,21.60
2011,08,16,17,07,21.60
2011,08,16,17,08,21.60
2011,08,16,17,09,21.60
2011,08,16,17,10,21.60
2011,08,16,17,11,21.70
2011,08,16,17,12,21.70
2011,08,16,17,13,21.70
2011,08,16,17,14,21.70
2011,08,16,17,15,21.70
2011,08,16,17,16,21.70
2011,08,16,17,17,21.70
2011,08,16,17,18,21.80
2011,08,16,17,19,21.80